User: anonymous   Login
Location: Kailua
(21.4020°N, 157.7390°W)
Time: 10:33:34
(UTC-10:00)
Language:

Cosmos 2297 Rocket - Orbit

View from above orbital plane
View from above orbital plane
View from above satellite
View from above satellite

Ground track
Ground track

The orbit data is extracted from the following two-line orbital elements,

1 23405U 94077B   17328.37325756 -.00000025  00000-0  11627-4 0  9999
2 23405  70.9822 238.6055 0000468  40.3343 319.7814 14.15198489188176
Epoch (UTC): 24 November 2017 08:57:29
Eccentricity: 0.0000468
inclination: 70.9822°
perigee height: 841 km
apogee height: 842 km
right ascension of ascending node: 238.6055°
argument of perigee: 40.3343°
revolutions per day: 14.15198489
mean anomaly at epoch: 319.7814°
orbit number at epoch: 18817

The dashed part of the orbit path shows where the satellite is in the earth's shadow,  

DLR